Location: Huberhof
(49.2050°N, 7.4980°E)
Time: 04:37:00
(UTC+00:00)

Cosmos 1486 Rocket - Pass Details

Date: 29 October 2020
Orbit: 758 x 784 km, 74.1° (Epoch: 25 November)

Event Time Altitude Azimuth Distance (km) Brightness Sun altitude
Rises 17:04:13 0° 338° (NNW) 3,286 7.4 -8.9°
Reaches altitude 10° 17:06:39 10° 342° (NNW) 2,353 6.6 -9.2°
Maximum altitude 17:11:57 62° 63° (ENE) 883 4.1 -10.1°
Drops below altitude 10° 17:17:12 10° 144° (SE) 2,329 6.2 -10.9°
Sets 17:19:36 0° 148° (SSE) 3,250 7.0 -11.3°
